S-NET B (43187 NORAD) Tracking and Keplerian Element Data

This shows tracking and keplerian element data for the satellite.

Feedback or suggestion? Click here.




ElementValue
Catalog43187
NameS-NET B
Epoch Orbit19941
Epoch Day269.48093677
Epoch Year2021
RAAN175.1719
Inclination97.6671
Eccentricity0.00125
Argument of Perigee102.1725
Mean Anonmoly258.0897
Mean Motion14.9714374
Decay Rate9.66E-06
L11 43187U 18014H 21269.48093677 .00000966 00000-0 88510-4 0 9998
L22 43187 97.6671 175.1719 0012500 102.1725 258.0897 14.97143740199411

Live tracking and technical data element details for S-NET B (NORAD 43187). S-NET B can be tracked NOW for your location showing map with azimuth and elevation plus other details from your city location.

Track the satellite on the map from your city or location and see movement details for azimuth, elevation, latitude, longitude, range, height, and movement on the map or in text.







IsCatalogInMostPopularTable: catalog: 43187, numindb: 572
Update: records affected: 1



GetName: 43187 S-NET B

Hit Count: updated at: Tue, 28 Sep 2021 15:56:20 GMT